CZ-6A DEB, 56257

Orbit data source: Space-Track

CZ-6A DEB, 56257 is space debris in SSO originally from a launch on Fri, 11 Nov 2022 UTC launched from the Taiyaun Space Center, China (TSC). Debris objects in space refer to the collection of defunct objects orbiting the Earth. Examples of debris include non-operational satellites, rocket bodies, and fragments generated from explosions, collisions, or faulty payload assembly.

Loading next visibility...
Identifier
56257, 2022-151ABZ
Orbit
SSO
Country
Flag of CNCN / PRC
Related business
Manufacturer
SAST
Mission
Spacecraft
Bus & Motor
Unknown
Mass
Unknown
Launch date (UTC)
2022-11-11 (4 years ago)
Launch vehicle
Unknown
Launch site
Taiyaun Space Center, China (TSC)
Object type
Payload
Rocket body
Debris
Shape & HBR
Unknown shape, 0.1 m
Radar Cross Section
Small (<0.1 m²)

Expand to show TLE details & history
Last TLE update: 2 days ago

TLE from 2 days ago
0 CZ-6A DEB
1 56257U 22151ABZ 26171.40239449  .00001985  00000-0  11336-2 0  9997
2 56257  98.8519 158.0264 0078761  13.7472 346.5818 14.09214011172767
Epoch: 2026-06-20T09:39Z
TLE epoch observation values (Epoch: 2026-06-20T09:39:26.883Z)
Latitude
-0.00006°
Longitude
104.54687°
Altitude
809.504 km
Speed
7.477 km/s
True Right ascension
10h 32m 06s
True Declination
0° 00' 00"
Sunlit
Object was in daylight at epoch
Visualization orbit readout
Latitude
Unknown
Longitude
Unknown
Altitude
Unknown
Speed
Unknown
Apparent Right ascension
Unknown
Apparent Declination
Unknown
Sunlit
N/A
Visualization observer readout
Local Sidereal Time
21:32:55
Azimuth
Unknown
Elevation
Unknown
Doppler factor
Unknown
Orbital elements
Apogee altitude
916.245 km
Perigee altitude
802.24 km
Semi-major axis
7,237.379 km
Eccentricity
0.00788
Inclination
98.8519°
RAAN
158.0264°
Arg. of periapsis
13.7472°
True anomaly
346.37034°
Mean anomaly
346.5818°
Eccentric anomaly
346.47627°
Mean motion
3.5251 °/min
Orbital period
102.12 mins
BSTAR
0.0011336
Loading maneuver chart data...
Computing Atmospheric mass density...
Loading historical data...
Loading historical data...
Loading historical data...
Loading historical data...
Loading historical data...
Loading historical data...
Loading historical data...

Documentation

Showing up to 5 results
|